SWARM B (39451 NORAD) Tracking and Keplerian Element Data

This shows tracking and keplerian element data for the satellite.

Feedback or suggestion? Click here.




ElementValue
Catalog39451
NameSWARM B
Epoch Orbit60723
Epoch Day34.86677276
Epoch Year2025
RAAN133.1694
Inclination87.7503
Eccentricity0.0002607
Argument of Perigee98.2377
Mean Anonmoly261.9166
Mean Motion15.23812546
Decay Rate7.076E-05
L11 39451U 13067A 25034.86677276 .00007076 00000+0 29258-3 0 9990
L22 39451 87.7503 133.1694 0002607 98.2377 261.9166 15.23812546607238



Live tracking and technical data element details for SWARM B (NORAD 39451). SWARM B can be tracked NOW for your location showing map with azimuth and elevation plus other details from your city location.







IsCatalogInMostPopularTable: catalog: 39451, numindb: 474
Update: records affected: 1



GetName: 39451 SWARM B

Hit Count: updated at: Sat, 24 May 2025 16:45:43 GMT